User: anonymous   Login
Location: Unspecified
(0.0000°N, 0.0000°E)
Time: 07:17:21
(UTC+00:00)
Language:

Cosmos 2499 - Orbit

View from above orbital plane
View from above orbital plane
View from above satellite
View from above satellite

Ground track
Ground track

The orbit data is extracted from the following two-line orbital elements,

1 39765U 14028E   17178.76036364 -.00000059 +00000-0 -27107-3 0  9990
2 39765 082.4405 304.8620 0230602 134.1074 227.9277 12.83340995145090
Epoch (UTC): 27 June 2017 18:14:55
Eccentricity: 0.0230602
inclination: 82.4405°
perigee height: 1150 km
apogee height: 1506 km
right ascension of ascending node: 304.8620°
argument of perigee: 134.1074°
revolutions per day: 12.83340995
mean anomaly at epoch: 227.9277°
orbit number at epoch: 14509

The dashed part of the orbit path shows where the satellite is in the earth's shadow,  

DLR